Torna al catalogo

BREEZE-M DEB

LostHEO
NORAD 38618·DEBRIS·🇷🇺 Russia

Lanciato Mar 14, 2008 da Baikonur Cosmodrome

Loading…

Prossimi Passaggi (prossime 24 ore)

TLE

ObsoletoSource: Space-Track

Epoca: Feb 25, 2013, 14:59 UTC

1 38618U 08011BR  13056.62442092 +.00001276 +00000-0 +38727-2 0  9995
2 38618 048.7008 233.4666 6563071 211.1041 085.2739 03.08211531013319

Traccia BREEZE-M DEB in tempo reale con AllMySat

Download on the App Store